POLYITAN-1

Last updated on Sun Sep 20 2026 00:03:42 GMT+0000 (Coordinated Universal Time)

1 40042U 14033AJ 26261.80553679 .00013247 00000+0 37736-3 0 9996 2 40042 98.0888 297.1259 0006839 166.6824 193.4599 15.36223873667950
UTC large
Height (km)
Speed (km/s)
/
Latitude / Longitude
Inclination (degrees)
Orbital Period (minutes)
Azimuth
Elevation
Range (km)
Doppler Factor

Next 0 passes for location: London (51.5072 / 0.1276)

No passes found over London.
POLYITAN-1